Simultaneous Nadir Overpasses (SNOs) Predictions

Prediction of SNOs between GOES-16 and NOAA-20 Satellite Orbit:

Table of predicted SNOs for the next 14.0 days since TLE Epoch: 3/2/2024
Index Date Time (GOES-16) GOES-16 Lat,Lon NOAA-20 Lat,Lon Distance(km) Time Diff (sec)
1 03/02/2024 06:11:19 -0.07, -75.20 -0.81, -71.94 372.27 80
2 03/03/2024 18:33:15 0.07, -75.21 -0.37, -77.24 230.45 80
3 03/04/2024 18:17:10 0.06, -75.22 0.61, -72.70 286.60 80
4 03/06/2024 06:38:57 -0.06, -75.21 0.56, -77.97 313.51 80
5 03/07/2024 06:17:31 -0.05, -75.22 -0.42, -73.43 203.64 80
6 03/08/2024 18:39:28 0.04, -75.24 -0.75, -78.73 398.46 80
7 03/09/2024 18:23:23 0.04, -75.25 0.30, -74.20 119.32 80
8 03/11/2024 06:45:10 -0.04, -75.26 0.92, -79.46 479.18 80
9 03/12/2024 06:23:45 -0.04, -75.27 -0.13, -74.93 38.76 80
10 03/14/2024 18:26:56 0.04, -75.31 -0.04, -75.70 44.02 80
11 03/15/2024 18:10:51 0.04, -75.33 0.95, -71.16 474.50 80
